Location: Beaver Brook Station
(42.3793°N, 71.2203°W)
Time: 01:57:04
(UTC+00:00)

Cosmos 2082 - Pass Details

Date: 29 October 2020
Orbit: 832 x 857 km, 71.0° (Epoch: 25 November)

Event Time Altitude Azimuth Distance (km) Brightness Sun altitude
Rises 23:17:37 0° 336° (NNW) 3,436 7.2 -18.3°
Reaches altitude 10° 23:20:05 10° 337° (NNW) 2,497 6.4 -18.7°
Maximum altitude 23:25:50 84° 65° (ENE) 867 3.6 -19.8°
Drops below altitude 10° 23:31:34 10° 155° (SSE) 2,480 5.9 -20.9°
Enters shadow 23:31:42 - 155° (SSE) 2,533 5.9 -20.9°
